Weather History for KFVX - May, 2013

Change the Weather History Date:

Thursday, May 16, 2013

  Actual Average (KLYH) Record (KLYH)
Temperature  
Mean Temperature 73 °F 63 °F  
Max Temperature 87 °F 75 °F 92 °F (1941)
Min Temperature 59 °F 51 °F 33 °F (1973)
Degree Days  
Heating Degree Days 0 4  
Month to date heating degree days 81  
Since 1 July heating degree days 4404  
Cooling Degree Days 8 2  
Month to date cooling degree days 21  
Year to date cooling degree days 39  
Growing Degree Days 23 (Base 50)    
Moisture  
Dew Point 55 °F    
Average Humidity 52    
Maximum Humidity 94    
Minimum Humidity 27    
Precipitation  
Precipitation 0.00 in 0.12 in 0.69 in (1912)
Month to date precipitation 1.84  
Year to date precipitation 14.80  
Snow  
Snow 0.00 in - - ()
Month to date snowfall  
Since 1 July snowfall  
Snow Depth -    
Sea Level Pressure  
Sea Level Pressure 29.88 in    
Wind  
Wind Speed 4 mph (SW)    
Max Wind Speed 14 mph    
Max Gust Speed 18 mph    
Visibility 10 miles    
Events Rain    
T = Trace of Precipitation, MM = Missing Value Source: NWS Daily Summary

Daily Weather History Graph

Daily Weather History Graph

Search for Another Location

Airport or City:

Trip Planner

Search our weather history database for the weather conditions in past years. The results will help you decide how hot, cold, wet, or windy it might be!

Date:

Astronomy

May. 16, 2013 Rise Set
Actual Time 6:03 AM EDT 8:16 PM EDT
Civil Twilight 5:34 AM EDT 8:46 PM EDT
Nautical Twilight 4:58 AM EDT 9:22 PM EDT
Astronomical Twilight 4:19 AM EDT 10:01 PM EDT
Moon 11:33 AM EDT (5/16) 12:38 AM EDT (5/16)
Length of Visible Light 15h 11m
Length of Day
14h 12m
Waxing Crescent, 35% of the Moon is Illuminated
May 16
Waxing Crescent
May 18
First Quarter
May 25
Full
May 31
Last Quarter
Jun 8
New

Hourly Weather History & Observations

Time (EDT) Temp. Heat Index Dew Point Humidity Pressure Visibility Wind Dir Wind Speed Gust Speed Precip Events Conditions
12:15 AM 73.4 °F - 57.2 °F 57% 29.85 in 10.0 mi SSW 3.5 mph - N/A   Clear
12:35 AM 73.4 °F - 57.2 °F 57% 29.85 in 10.0 mi Calm Calm - N/A   Clear
12:55 AM 73.4 °F - 57.2 °F 57% 29.85 in 10.0 mi Calm Calm - N/A   Clear
1:15 AM 73.4 °F - 59.0 °F 61% 29.85 in 10.0 mi Calm Calm - N/A   Clear
1:35 AM 71.6 °F - 59.0 °F 64% 29.85 in 10.0 mi Calm Calm - N/A   Clear
1:55 AM 66.2 °F - 60.8 °F 83% 29.85 in 10.0 mi Calm Calm - N/A   Clear
2:15 AM 69.8 °F - 59.0 °F 68% 29.84 in 10.0 mi Calm Calm - N/A   Clear
2:35 AM 64.4 °F - 59.0 °F 83% 29.84 in 10.0 mi SW 4.6 mph - N/A   Clear
2:55 AM 71.6 °F - 57.2 °F 60% 29.84 in 10.0 mi SW 3.5 mph - N/A   Clear
3:15 AM 71.6 °F - 55.4 °F 57% 29.84 in 10.0 mi WSW 4.6 mph - N/A   Clear
3:35 AM 71.6 °F - 55.4 °F 57% 29.84 in 10.0 mi SW 4.6 mph - N/A   Clear
3:55 AM 71.6 °F - 53.6 °F 53% 29.84 in 10.0 mi SW 3.5 mph - N/A   Clear
4:15 AM 69.8 °F - 53.6 °F 56% 29.84 in 10.0 mi SW 3.5 mph - N/A   Clear
4:35 AM 69.8 °F - 53.6 °F 56% 29.84 in 10.0 mi SW 3.5 mph - N/A   Clear
4:55 AM 69.8 °F - 53.6 °F 56% 29.84 in 10.0 mi SW 3.5 mph - N/A   Clear
5:15 AM 69.8 °F - 53.6 °F 56% 29.84 in 10.0 mi SSW 3.5 mph - N/A   Clear
5:35 AM 66.2 °F - 53.6 °F 64% 29.84 in 10.0 mi Calm Calm - N/A   Clear
5:55 AM 60.8 °F - 57.2 °F 88% 29.85 in 10.0 mi SSW 3.5 mph - N/A   Clear
6:15 AM 60.8 °F - 57.2 °F 88% 29.86 in 10.0 mi SW 4.6 mph - N/A   Clear
6:35 AM 59.0 °F - 57.2 °F 94% 29.86 in 10.0 mi SSW 3.5 mph - N/A   Clear
6:55 AM 62.6 °F - 59.0 °F 88% 29.86 in 10.0 mi SSW 3.5 mph - N/A   Clear
7:15 AM 68.0 °F - 59.0 °F 73% 29.87 in 10.0 mi SW 5.8 mph - N/A   Clear
7:35 AM 69.8 °F - 55.4 °F 60% 29.87 in 10.0 mi SW 5.8 mph - N/A   Clear
7:55 AM 71.6 °F - 55.4 °F 57% 29.87 in 10.0 mi SW 4.6 mph - N/A   Clear
8:15 AM 73.4 °F - 55.4 °F 53% 29.88 in 10.0 mi SW 5.8 mph - N/A   Clear
8:35 AM 75.2 °F - 55.4 °F 50% 29.89 in 10.0 mi SW 4.6 mph - N/A   Clear
8:55 AM 77.0 °F - 53.6 °F 44% 29.89 in 10.0 mi WSW 6.9 mph - N/A   Clear
9:15 AM 78.8 °F - 53.6 °F 42% 29.89 in 10.0 mi WSW 6.9 mph - N/A   Clear
9:35 AM 78.8 °F - 51.8 °F 39% 29.89 in 10.0 mi WSW 4.6 mph 16.1 mph N/A   Clear
9:55 AM 80.6 °F - 50.0 °F 34% 29.89 in 10.0 mi WSW 8.1 mph - N/A   Clear
10:15 AM 82.4 °F - 48.2 °F 30% 29.89 in 10.0 mi West 8.1 mph - N/A   Clear
10:35 AM 82.4 °F - 50.0 °F 32% 29.89 in 10.0 mi SW 8.1 mph - N/A   Clear
10:55 AM 82.4 °F - 48.2 °F 30% 29.90 in 10.0 mi WSW 9.2 mph - N/A   Clear
11:15 AM 84.2 °F - 48.2 °F 29% 29.90 in 10.0 mi WNW 4.6 mph - N/A   Clear
11:35 AM 84.2 °F - 51.8 °F 33% 29.90 in 10.0 mi SW 9.2 mph 16.1 mph N/A   Clear
11:55 AM 84.2 °F - 50.0 °F 30% 29.90 in 10.0 mi SW 9.2 mph - N/A   Clear
12:15 PM 84.2 °F - 48.2 °F 29% 29.89 in 10.0 mi WSW 9.2 mph - N/A   Clear
12:35 PM 86.0 °F 84.2 °F 53.6 °F 33% 29.88 in 10.0 mi SSW 10.4 mph - N/A   Clear
12:55 PM 86.0 °F - 50.0 °F 29% 29.88 in 10.0 mi SW 10.4 mph 16.1 mph N/A   Clear
1:15 PM 87.8 °F - 51.8 °F 29% 29.88 in 10.0 mi SW 6.9 mph - N/A   Clear
1:35 PM 86.0 °F - 48.2 °F 27% 29.88 in 10.0 mi SW 8.1 mph 16.1 mph N/A   Clear
1:55 PM 87.8 °F - 51.8 °F 29% 29.87 in 10.0 mi SW 5.8 mph - N/A   Clear
2:15 PM 87.8 °F - 51.8 °F 29% 29.87 in 10.0 mi SSW 9.2 mph - N/A   Scattered Clouds
2:35 PM 87.8 °F - 50.0 °F 27% 29.87 in 10.0 mi WSW 10.4 mph - N/A   Scattered Clouds
3:15 PM 87.8 °F - 51.8 °F 29% 29.86 in 10.0 mi SW 13.8 mph 17.3 mph N/A   Scattered Clouds
3:35 PM 87.8 °F - 51.8 °F 29% 29.86 in 10.0 mi SW 13.8 mph 18.4 mph N/A   Clear
3:55 PM 84.2 °F - 51.8 °F 33% 29.86 in 10.0 mi SW 11.5 mph - N/A   Clear
4:15 PM 84.2 °F - 51.8 °F 33% 29.86 in 10.0 mi SW 9.2 mph 17.3 mph N/A   Clear
4:35 PM 84.2 °F - 51.8 °F 33% 29.86 in 10.0 mi WSW 4.6 mph - N/A   Clear
4:55 PM 84.2 °F 82.8 °F 53.6 °F 35% 29.88 in 10.0 mi West 5.8 mph - N/A   Scattered Clouds
5:15 PM 78.8 °F - 55.4 °F 44% 29.89 in 10.0 mi NNE 9.2 mph - N/A   Mostly Cloudy
5:35 PM 78.8 °F - 55.4 °F 44% 29.89 in 10.0 mi NE 3.5 mph - N/A   Mostly Cloudy
6:15 PM 78.8 °F - 57.2 °F 47% 29.88 in 10.0 mi SE 3.5 mph - N/A   Clear
6:35 PM 78.8 °F - 57.2 °F 47% 29.88 in 10.0 mi SSE 3.5 mph - N/A   Scattered Clouds
6:55 PM 78.8 °F - 59.0 °F 51% 29.88 in 10.0 mi Calm Calm - N/A   Scattered Clouds
7:15 PM 78.8 °F - 59.0 °F 51% 29.88 in 10.0 mi Calm Calm - N/A   Clear
7:35 PM 75.2 °F - 60.8 °F 61% 29.89 in 10.0 mi Calm Calm - N/A   Mostly Cloudy
7:55 PM 75.2 °F - 60.8 °F 61% 29.90 in 10.0 mi Calm Calm - N/A   Scattered Clouds
8:15 PM 73.4 °F - 60.8 °F 65% 29.91 in 10.0 mi NNW 3.5 mph - N/A   Clear
8:35 PM 73.4 °F - 60.8 °F 65% 29.92 in 10.0 mi North 3.5 mph - N/A   Scattered Clouds
8:55 PM 71.6 °F - 60.8 °F 69% 29.91 in 10.0 mi Calm Calm - N/A   Scattered Clouds
9:15 PM 71.6 °F - 60.8 °F 69% 29.92 in 10.0 mi SSW 3.5 mph - N/A   Clear
9:35 PM 71.6 °F - 60.8 °F 69% 29.93 in 10.0 mi Calm Calm - N/A   Scattered Clouds
9:55 PM 73.4 °F - 60.8 °F 65% 29.96 in 10.0 mi NW 8.1 mph - N/A   Overcast
10:15 PM 73.4 °F - 57.2 °F 57% 29.96 in 10.0 mi NNW 3.5 mph - N/A Rain Light Rain
10:35 PM 71.6 °F - 55.4 °F 57% 29.96 in 10.0 mi Calm Calm - N/A   Clear
10:55 PM 69.8 °F - 55.4 °F 60% 29.96 in 10.0 mi Calm Calm - N/A   Clear
11:15 PM 69.8 °F - 55.4 °F 60% 29.96 in 10.0 mi Calm Calm - N/A   Clear
11:35 PM 66.2 °F - 59.0 °F 78% 29.95 in 10.0 mi Calm Calm - N/A   Clear
11:55 PM 68.0 °F - 55.4 °F 64% 29.95 in 10.0 mi Calm Calm - N/A   Clear